Weather in Ozyag

Russia / Komi Republic     61°49′11″N   53°26′37″E
temp.,
°C
wind,
m/s
gust,
m/s
humid.,
%
clouds,
%
prec.,
mm/h
press.,
hPa
HPBL,
m
10 may, mon
mon1000:00+12sse3137364 0.0 1016256
03:00+11sse31375100 0.0 1017286
06:00+14s31262100 0.0 1017405
09:00+16sw41066100 0.1 1019750
12:00+13w1484100 0.7 1020297
15:00+8nnw4993100 4.5 1022360
18:00+7nnw3794100 2.5 1024424
21:00+7nnw3794100 4.9 1026491
11 may, tue
tue1100:00+5nnw269488 0.0 1027299
03:00+3nnw249692 0.0 102982
06:00+6nnw127799 0.0 1029254
09:00+10wnw125349 0.0 1029732
12:00+14w243769 0.0 10291121
15:00+16w3542100 0.0 10281207
18:00+13wsw246380 0.0 102880
21:00+11sw277692 0.0 1029157
12 may, wed
wed1200:00+11sw3107899 0.0 1029234
03:00+9wsw31186100 0.0 1029240
06:00+13wsw397096 0.0 1028348
09:00+18wsw47536 0.0 1028875
12:00+21w574299 0.0 10271546
15:00+22w473998 0.0 10261745
18:00+19w2656100 0.0 1026153
21:00+14w2373100 0.0 102744
13 may, thu
thu1300:00+12w228121 0.0 102739
03:00+11wnw22835 0.0 102828
06:00+16nw236517 0.0 1028208
09:00+22w114716 0.0 1028747
12:00+25wsw11370 0.0 10271969
15:00+25sw123420 0.0 10252145
18:00+22sw114523 0.0 102425
21:00+17s225940 0.0 102315
14 may, fri
fri1400:00+15sw2571100 0.0 1022103
03:00+14wsw257386 0.0 102277
06:00+19sw375532 0.0 1021260
09:00+23wsw464477 0.0 10201140
12:00+25wsw5839100 0.0 10192542
15:00+24wsw4841100 0.0 10182149
18:00+20w25596 0.1 1017164
21:00+15sw1186100 0.9 101711